Regional Weather Roundup
Issued by NWS

Home | Current Version | Previous Version | Text Only | Print | Product List | Glossary On
Versions: 1 2 3 4 5 6 7 8 9 10 11 12 13 14 15 16 17 18 19 20 21 22 23 24 25 26 27 28 29 30 31 32 33 34 35 36 37 38 39 40 41 42 43 44 45 46 47 48 49 50
000
ASUS43 KMKX 010021
RWRWI

WISCONSIN REGIONAL WEATHER ROUNDUP
NATIONAL WEATHER SERVICE MILWAUKEE/SULLIVAN WI
700 PM CDT FRI JUL 31 2015

NOTE: "FAIR" INDICATES FEW OR NO CLOUDS BELOW 12,000 FEET WITH NO
SIGNIFICANT WEATHER AND/OR OBSTRUCTIONS TO VISIBILITY.

WIZ001-002-006>008-014>016-023>028-010100-
NORTHWEST WISCONSIN

CITY           SKY/WX    TMP DP  RH WIND       PRES   REMARKS
SUPERIOR ARPT  SUNNY     76  51  42 W12G22    29.91S
6HR MIN TEMP:  71; 6HR MAX TEMP:  80;

ASHLAND        LGT RAIN  69  63  81 N3        29.92S
6HR MIN TEMP:  64; 6HR MAX TEMP:  78; 6HR PCP:  0.04;

HAYWARD        MOSUNNY   77  49  37 NW6       29.94F
6HR MIN TEMP:  75; 6HR MAX TEMP:  79;

SIREN          SUNNY     77  48  35 NW9       29.96F
6HR MIN TEMP:  75; 6HR MAX TEMP:  80;

CUMBERLAND     SUNNY     73  46  38 NW9G16    29.97S
RICE LAKE      SUNNY     75  48  38 W10G17    29.98S
6HR MIN TEMP:  73; 6HR MAX TEMP:  77;

CHETEK         SUNNY     76  51  41 W5        29.96S
6HR MIN TEMP:  75; 6HR MAX TEMP:  79;

LADYSMITH      SUNNY     76  51  41 W15       29.97S
6HR MIN TEMP:  75; 6HR MAX TEMP:  78;

EAU CLAIRE     SUNNY     78  49  35 NW13      29.95F
6HR MIN TEMP:  77; 6HR MAX TEMP:  81;

MENOMONIE      SUNNY     78  47  33 W9        29.97F
6HR MIN TEMP:  78; 6HR MAX TEMP:  81;

NEW RICHMOND   SUNNY     76  48  37 NW8       29.98F
6HR MIN TEMP:  76; 6HR MAX TEMP:  79;

OSCEOLA        SUNNY     77  49  36 W9        29.99F
6HR MIN TEMP:  76; 6HR MAX TEMP:  79;

$$

WIZ003>005-009-010-017-018-010100-
NORTH CENTRAL WISCONSIN

CITY           SKY/WX    TMP DP  RH WIND       PRES   REMARKS
MANITOWISH WTR MOSUNNY   64  58  81 SW5       29.94S
6HR MIN TEMP:  59; 6HR MAX TEMP:  74; 6HR PCP:  0.05;

ARBOR VITAE    MOSUNNY   64  57  78 CALM      29.94F
6HR MIN TEMP:  59; 6HR MAX TEMP:  77; 6HR PCP:  0.05;

WOODRUFF       MOSUNNY   64  57  78 CALM      29.94F
6HR MIN TEMP:  59; 6HR MAX TEMP:  77; 6HR PCP:  0.05;

RHINELANDER    PTSUNNY   64  56  75 W5        29.96F
6HR MIN TEMP:  61; 6HR MAX TEMP:  78; 6HR PCP:  0.02;

EAGLE RIVER    PTSUNNY   64  51  62 W8        29.94F
6HR MIN TEMP:  64; 6HR MAX TEMP:  75;

LAND O LAKES   PTSUNNY   68  48  48 W6        29.94S
6HR MIN TEMP:  67; 6HR MAX TEMP:  75;

PHILLIPS       PTSUNNY   67  60  78 CALM      29.94S
6HR MIN TEMP:  65; 6HR MAX TEMP:  76; 6HR PCP:  0.01;

TOMAHAWK       CLOUDY    61  55  79 NW3       29.97S
6HR MIN TEMP:  61; 6HR MAX TEMP:  76;

MEDFORD        SUNNY     73  52  48 W12G17    29.95F
6HR MIN TEMP:  71; 6HR MAX TEMP:  76;

MERRILL        NOT AVBL
$$

WIZ029-030-035-036-043>047-010100-
CENTRAL WISCONSIN

CITY           SKY/WX    TMP DP  RH WIND       PRES   REMARKS
WAUSAU         CLOUDY    71  53  52 N8G17     29.93R
6HR MIN TEMP:  71; 6HR MAX TEMP:  81;

MOSINEE        MOSUNNY   73  52  46 W10G17    29.95S
MARSHFIELD     SUNNY     76  49  38 NW14      29.95F
6HR MIN TEMP:  76; 6HR MAX TEMP:  80;

STEVENS POINT  MOSUNNY   74  52  45 W10G16    29.95R
6HR MIN TEMP:  74; 6HR MAX TEMP:  78;

WAUPACA        MOSUNNY   80  49  34 W12G22    29.92S
6HR MIN TEMP:  80; 6HR MAX TEMP:  83;

WAUTOMA        SUNNY     79  49  34 NW15      29.94S
6HR MIN TEMP:  79; 6HR MAX TEMP:  84;

WISC RAPIDS    SUNNY     77  48  35 NW16      29.96S
6HR MIN TEMP:  77; 6HR MAX TEMP:  82;

CAMP DOUGLAS   SUNNY     76  52  43 NW15      29.96S
6HR MIN TEMP:  76; 6HR MAX TEMP:  81;

$$

WIZ011>013-019>022-031-037>040-048>050-010100-
NORTHEAST WISCONSIN

CITY           SKY/WX    TMP DP  RH WIND       PRES   REMARKS
ANTIGO         CLOUDY    64  57  78 W10       29.95S
SHAWANO        DRIZZLE   71  54  55 NW7G18    29.92R
6HR MIN TEMP:  70; 6HR MAX TEMP:  83;

OCONTO         PTSUNNY   77  50  39 NW7       29.86S
6HR MIN TEMP:  77; 6HR MAX TEMP:  83;

STURGEON BAY   MOSUNNY   73  54  49 NW8       29.89S
6HR MIN TEMP:  73; 6HR MAX TEMP:  81;

GREEN BAY      SUNNY     78  52  40 NW9       29.89R
6HR MIN TEMP:  78; 6HR MAX TEMP:  82;

MANITOWOC      SUNNY     79  51  37 MISG      29.88S
6HR MIN TEMP:  79; 6HR MAX TEMP:  82;

APPLETON       PTSUNNY   77  48  36 W12G17    29.91S
CLINTONVILLE   LGT RAIN  72  52  49 N9        29.92R
OSHKOSH        SUNNY     78  52  40 W16G22    29.91S
6HR MIN TEMP:  77; 6HR MAX TEMP:  81;

$$

WIZ032>034-041-042-053>061-010100-
SOUTHWEST WISCONSIN

CITY           SKY/WX    TMP DP  RH WIND       PRES   REMARKS
LA CROSSE      SUNNY     80  52  37 NW12      29.96F HX  80
6HR MIN TEMP:  80; 6HR MAX TEMP:  84;

SPARTA         SUNNY     79  45  29 NW14G20   29.97F
6HR MIN TEMP:  79; 6HR MAX TEMP:  82;

VIROQUA        SUNNY     75  51  41 NW7       30.00S
6HR MIN TEMP:  75; 6HR MAX TEMP:  79;

BOSCOBEL       SUNNY     82  54  37 NW5       29.97F HX  81
6HR MIN TEMP:  82; 6HR MAX TEMP:  87;

PRAIRIE DU CHI SUNNY     81  48  32 W9        29.98S HX  80
6HR MIN TEMP:  81; 6HR MAX TEMP:  84;

PLATTEVILLE    SUNNY     78  52  40 NW10      29.99S
6HR MIN TEMP:  78; 6HR MAX TEMP:  82;

$$

WIZ056-057-062-063-064-067-068-010100-
SOUTH CENTRAL WISCONSIN

CITY           SKY/WX    TMP DP  RH WIND       PRES   REMARKS
REEDSBURG      SUNNY     78  50  37 NW10      29.96S
6HR MIN TEMP:  78; 6HR MAX TEMP:  83;

BARABOO/DELLS  SUNNY     78  45  30 NW10      29.96S
6HR MIN TEMP:  78; 6HR MAX TEMP:  82;

LONE ROCK      SUNNY     80  48  32 NW13      29.97S
6HR MIN TEMP:  80; 6HR MAX TEMP:  84;

MINERAL POINT  SUNNY     79  48  34 NW8       29.99S
MADISON        MOSUNNY   78  48  34 NW10G22   29.95S
6HR MIN TEMP:  78; 6HR MAX TEMP:  82;

MIDDLETON      SUNNY     79  44  28 NW12G18   29.97S
6HR MIN TEMP:  79; 6HR MAX TEMP:  83;

WATERTOWN      SUNNY     77  53  42 W9        29.94S
6HR MIN TEMP:  77; 6HR MAX TEMP:  82;

MONROE         SUNNY     77  50  38 NW13      29.97S
JANESVILLE     SUNNY     81  45  28 NW12G17   29.95S
$$

WIZ051-052-058>065-066-070>072-010100-
SOUTHEAST WISCONSIN

CITY           SKY/WX    TMP DP  RH WIND       PRES   REMARKS
MILWAUKEE      MOSUNNY   81  47  30 W18       29.92S HX  80
6HR MIN TEMP:  81; 6HR MAX TEMP:  84;

WAUKESHA       MOSUNNY   77  46  33 NW15      29.94F
MILWAUKEE/TIMM MOSUNNY   79  43  27 NW13G22   29.92S
RACINE         MOSUNNY   80  49  33 NW10G21   29.94S
6HR MIN TEMP:  80; 6HR MAX TEMP:  84; 6HR PCP: TRACE;

BURLINGTON     SUNNY     77  47  34 NW8       29.94S
6HR MIN TEMP:  77; 6HR MAX TEMP:  82;

KENOSHA        SUNNY     79  50  36 NW12      29.93S
6HR MIN TEMP:  79; 6HR MAX TEMP:  84;

FOND DU LAC    SUNNY     78  52  40 NW13      29.92S
6HR MIN TEMP:  78; 6HR MAX TEMP:  83;

SHEBOYGAN      PTSUNNY   78  52  40 NW16G24   29.90S
6HR MIN TEMP:  78; 6HR MAX TEMP:  82;

WEST BEND      SUNNY     77  45  31 W10G16    29.92S
JUNEAU         SUNNY     76  51  41 W7        29.94S
6HR MIN TEMP:  76; 6HR MAX TEMP:  79;

$$

LSZ147-162-010100-
LAKE SUPERIOR

STATION/POSITION TIME  TEMP    WIND        PRES    WAVE
                       AIR SEA DIR/SP/G            HT/PER
                 (UTC) (F)     (DEG/KT/KT) (MB)    (FT/S)
W MID LAKE BUOY  2350   60 54  240/ 14/ 17 1010.9F   1/ 4
DEVILS ISLAND    0000   66     260/ 10/ 11 1012.2R
PORT WING        2340   72     180/  3/  4 1012.5F
SAXON HARBOR     2340   67                 1012.2F
$$

LMZ867-665-643>646-010100-
LAKE MICHIGAN

STATION/POSITION TIME  TEMP    WIND        PRES    WAVE
                       AIR SEA DIR/SP/G            HT/PER



USA.gov is the U.S. government's official web portal to all federal, state and local government web resources and services.